2011 QJ21 |
ephemeris |
date |
magn |
radius |
delta |
ra |
dec |
elong |
phase |
Today | 16 Oct 2025 | 26.6 | 0.988 AU | 1.026 AU | 17h21m | -19°50' | 58.5° | 59.3° |
2011 QJ21 - 2025-10-16
astro.vanbuitenen.nl
The interactive orbit chart above shows the body's path through the solar system and its position at the given date.
Green and blue lines are shown perpendicular to the ecliptic plane: Green if the path is above the ecliptic plane, blue if it is below.
(Left-click and drag to rotate the view; Right-click and drag to move the view; Use scroll wheel to zoom in our out.)
The orbital elements of 2011 QJ21 are:
e (Eccentricity) : 0.3822836
a (Semimajor axis) : 1.0593775
i (Inclination) : 19.40600
Ω (Longitude of ascending node) : 150.13594
ω (Argument of perihelion) : 66.88720
M (Mean anomaly) : 270.06072
Epoch : 2025 May 05
L (Longitude of perihelion) : 215.78880
B (Latitude of perihelion) : 17.79370
P (Orbital period in years) : 1.09
The light curve chart below shows the estimated development of the minor planet's magnitude.
The all-sky chart below shows the path of the minor planet over the same period as the light curve. The current position is marked yellow.
The following chart shows the path of the minor planet in the next few days. The field of view is optimized for (~10x50) binoculars and finderscopes.
A more printer-friendly version of the same chart can be found below.
Ephemerides:
Date Time RA (2000) DEC (2000) delta radius elong phase PA magn
2025-10-16 00:00 UT 17 21 30.4 -19 50 30 1.026 0.988 58.5 59.3 92 26.6
2025-10-16 17:03 UT 17 25 22.0 -20 06 30 1.029 0.993 58.7 59.1 92 26.6
2025-10-17 00:00 UT 17 26 56.2 -20 12 55 1.030 0.995 58.8 58.9 91 26.6
2025-10-18 00:00 UT 17 32 20.6 -20 34 31 1.035 1.002 59.0 58.6 91 26.6
2025-10-19 00:00 UT 17 37 43.5 -20 55 18 1.040 1.008 59.3 58.2 91 26.7
2025-10-20 00:00 UT 17 43 04.9 -21 15 14 1.045 1.015 59.6 57.8 90 26.7
2025-10-21 00:00 UT 17 48 24.7 -21 34 22 1.050 1.021 59.8 57.4 90 26.7
2025-10-22 00:00 UT 17 53 42.8 -21 52 39 1.056 1.028 60.1 57.0 90 26.7
Terminology:
delta: distance between minor planet and earth in AU
radius: distance between minor planet and sun in AU
magn: magnitude (brightness) estimate
ra: right ascension in hours (24h = 360deg)
dec: declination in degrees
elong: elongation in degrees (angle sun-earth-minor planet)
phase: phase angle in degrees (angle sun-minor planet-earth)
AU: Astronomical Unit (mean distance between earth and sun: 149597870.7 km
Orbital elements provided by the MPC (Minor Planet Center).
Calculations by a modified version of AAPlus, a C# implementation of the AA+ project by PJ Naughter from the algorithms presented in the book "Astronomical Algorithms" by Jean Meeus.
NGC2000 dso catalog and star labels from VizieR as provided by the Strasbourg astronomical Data Center.
Tycho2 catalog from the ESO archive.